• In Denmark
  • List of Countries
  • For 7 days
  • Water Temperature
  • Satellite Maps
  • Weather Map
  • Weather Widgets
  • user-avatar
    Login

    Hourly Weather Lankaran

    Today, 21 January, Sunday

    Time Temperature Precipitation Wind Pressure Humidity
    00:00 -2°C° 0 mm 3 mps 634 mmHg 72%
    01:00 -4°C° 0 mm 3 mps 634 mmHg 70%
    02:00 -4°C° 0 mm 3 mps 634 mmHg 68%
    03:00 -4°C° 0 mm 3 mps 633 mmHg 68%
    04:00 -4°C° 0 mm 3 mps 633 mmHg 66%
    05:00 -4°C° 0 mm 3 mps 633 mmHg 65%
    06:00 -4°C° 0 mm 3 mps 633 mmHg 64%
    07:00 -2°C° 0 mm 3 mps 634 mmHg 63%
    08:00 0°C° 0 mm 3 mps 634 mmHg 63%
    09:00 +1°C° 0 mm 3 mps 634 mmHg 62%
    10:00 +2°C° 0 mm 3 mps 634 mmHg 60%
    11:00 +4°C° 0 mm 3 mps 634 mmHg 57%
    12:00 +5°C° 0 mm 4 mps 634 mmHg 54%
    13:00 +5°C° 0 mm 4 mps 634 mmHg 52%
    14:00 +5°C° 0 mm 4 mps 633 mmHg 51%
    15:00 +5°C° 0 mm 4 mps 633 mmHg 50%
    16:00 +4°C° 0 mm 4 mps 633 mmHg 51%
    17:00 +2°C° 0 mm 3 mps 632 mmHg 52%
    18:00 +1°C° 0 mm 3 mps 632 mmHg 53%
    19:00 0°C° 0 mm 3 mps 632 mmHg 51%
    20:00 0°C° 0 mm 3 mps 632 mmHg 48%
    21:00 0°C° 0 mm 3 mps 632 mmHg 46%
    22:00 0°C° 0 mm 3 mps 632 mmHg 46%
    23:00 0°C° 0 mm 3 mps 632 mmHg 45%

    Tomorrow, 22 January, Monday

    Time Temperature Precipitation Wind Pressure Humidity
    00:00 0°C° 0 mm 3 mps 632 mmHg 44%
    01:00 +1°C° 0 mm 2 mps 632 mmHg 44%
    02:00 +1°C° 0 mm 2 mps 632 mmHg 43%
    03:00 +1°C° 0 mm 2 mps 632 mmHg 42%
    04:00 +1°C° 0 mm 2 mps 632 mmHg 42%
    05:00 +1°C° 0 mm 2 mps 632 mmHg 42%
    06:00 +1°C° 0 mm 2 mps 632 mmHg 42%
    07:00 +2°C° 0 mm 2 mps 632 mmHg 42%
    08:00 +3°C° 0 mm 2 mps 632 mmHg 42%
    09:00 +4°C° 0 mm 2 mps 632 mmHg 42%
    10:00 +5°C° 0 mm 2 mps 632 mmHg 42%
    11:00 +7°C° 0 mm 3 mps 631 mmHg 41%
    12:00 +8°C° 0 mm 3 mps 631 mmHg 41%
    13:00 +8°C° 0 mm 3 mps 630 mmHg 41%
    14:00 +8°C° 0 mm 3 mps 630 mmHg 41%
    15:00 +8°C° 0 mm 3 mps 629 mmHg 41%
    16:00 +5°C° 0 mm 3 mps 629 mmHg 41%
    17:00 +4°C° 0 mm 3 mps 629 mmHg 40%
    18:00 +3°C° 0 mm 3 mps 628 mmHg 40%
    19:00 +2°C° 0 mm 3 mps 628 mmHg 38%
    20:00 +2°C° 0 mm 3 mps 628 mmHg 37%
    21:00 +1°C° 0 mm 3 mps 627 mmHg 35%
    22:00 +1°C° 0 mm 3 mps 627 mmHg 35%
    23:00 0°C° 0 mm 4 mps 627 mmHg 36%

    Day after tomorrow, 23 January, Tuesday

    Time Temperature Precipitation Wind Pressure Humidity
    00:00 0°C° 0 mm 4 mps 627 mmHg 36%
    01:00 0°C° 0 mm 4 mps 627 mmHg 35%
    02:00 -1°C° 0 mm 4 mps 627 mmHg 35%
    03:00 -1°C° 0 mm 4 mps 627 mmHg 35%
    04:00 -1°C° 0 mm 4 mps 627 mmHg 35%
    05:00 -1°C° 0 mm 4 mps 627 mmHg 35%
    06:00 -1°C° 0 mm 4 mps 627 mmHg 36%
    07:00 0°C° 0 mm 4 mps 627 mmHg 36%
    08:00 +2°C° 0 mm 3 mps 628 mmHg 36%
    09:00 +3°C° 0 mm 3 mps 628 mmHg 36%
    10:00 +4°C° 0 mm 4 mps 628 mmHg 35%
    11:00 +6°C° 0 mm 4 mps 629 mmHg 34%
    12:00 +7°C° 0 mm 4 mps 629 mmHg 33%
    13:00 +7°C° 0 mm 4 mps 628 mmHg 34%
    14:00 +6°C° 0 mm 4 mps 628 mmHg 35%
    15:00 +6°C° 0 mm 4 mps 628 mmHg 36%
    16:00 +5°C° 0 mm 4 mps 628 mmHg 39%
    17:00 +4°C° 0 mm 3 mps 628 mmHg 42%
    18:00 +2°C° 0 mm 3 mps 628 mmHg 45%
    19:00 +3°C° 0 mm 2 mps 628 mmHg 45%
    20:00 +3°C° 0 mm 2 mps 628 mmHg 45%
    21:00 +3°C° 0 mm 2 mps 628 mmHg 44%
    22:00 +3°C° 0 mm 2 mps 628 mmHg 45%
    23:00 +3°C° 0 mm 2 mps 628 mmHg 45%

    24 January, Wednesday

    Time Temperature Precipitation Wind Pressure Humidity
    00:00 +3°C° 0 mm 2 mps 628 mmHg 45%
    01:00 +2°C° 0 mm 2 mps 628 mmHg 47%
    02:00 +2°C° 0 mm 2 mps 628 mmHg 50%
    03:00 +2°C° 0 mm 2 mps 628 mmHg 52%
    04:00 +2°C° 0 mm 2 mps 629 mmHg 55%
    05:00 +2°C° 0 mm 2 mps 629 mmHg 58%
    06:00 +1°C° 0 mm 2 mps 629 mmHg 61%
    07:00 +1°C° 0 mm 3 mps 630 mmHg 62%
    08:00 +2°C° 0 mm 3 mps 630 mmHg 62%
    09:00 +2°C° 0 mm 3 mps 631 mmHg 62%
    10:00 +3°C° 0 mm 4 mps 631 mmHg 58%
    11:00 +4°C° 0 mm 4 mps 631 mmHg 55%
    12:00 +5°C° 0 mm 4 mps 632 mmHg 51%
    13:00 +4°C° 0 mm 4 mps 632 mmHg 51%
    14:00 +4°C° 0 mm 4 mps 632 mmHg 51%
    15:00 +4°C° 0 mm 3 mps 632 mmHg 51%
    16:00 +3°C° 0 mm 3 mps 632 mmHg 57%
    17:00 +3°C° 0 mm 2 mps 632 mmHg 63%
    18:00 +2°C° 0 mm 2 mps 632 mmHg 69%
    19:00 +1°C° 0 mm 2 mps 633 mmHg 70%
    20:00 +1°C° 0 mm 2 mps 633 mmHg 72%
    21:00 +1°C° 0 mm 2 mps 633 mmHg 74%
    22:00 +1°C° 0 mm 2 mps 633 mmHg 76%
    23:00 -1°C° 0 mm 2 mps 633 mmHg 79%

    25 January, Thursday

    Time Temperature Precipitation Wind Pressure Humidity
    00:00 -1°C° 0 mm 2 mps 633 mmHg 81%
    01:00 -1°C° 0 mm 2 mps 634 mmHg 83%
    02:00 -1°C° 0 mm 2 mps 634 mmHg 84%
    03:00 -1°C° 0 mm 3 mps 634 mmHg 86%
    04:00 -1°C° 0.1 mm 3 mps 634 mmHg 88%
    05:00 -1°C° 0.1 mm 3 mps 634 mmHg 89%
    06:00 -2°C° 0.1 mm 3 mps 635 mmHg 91%
    07:00 -1°C° 0.1 mm 3 mps 635 mmHg 89%
    08:00 -1°C° 0.1 mm 3 mps 635 mmHg 87%
    09:00 -1°C° 0.1 mm 3 mps 636 mmHg 86%
    10:00 -2°C° 0.1 mm 4 mps 635 mmHg 84%
    11:00 -1°C° 0.1 mm 4 mps 635 mmHg 82%
    12:00 -1°C° 0.1 mm 4 mps 635 mmHg 81%
    13:00 -1°C° 0.1 mm 4 mps 635 mmHg 81%
    14:00 -1°C° 0.1 mm 4 mps 635 mmHg 81%
    15:00 -1°C° 0.1 mm 4 mps 635 mmHg 81%
    16:00 0°C° 0.1 mm 3 mps 635 mmHg 84%
    17:00 -1°C° 0.1 mm 3 mps 635 mmHg 86%
    18:00 -1°C° 0.1 mm 3 mps 635 mmHg 88%
    19:00 -2°C° 0.1 mm 3 mps 635 mmHg 89%
    20:00 -2°C° 0.1 mm 3 mps 635 mmHg 89%
    21:00 -2°C° 0.1 mm 3 mps 635 mmHg 90%
    22:00 -2°C° 0.1 mm 3 mps 635 mmHg 90%
    23:00 -2°C° 0.1 mm 3 mps 635 mmHg 90%

    26 January, Friday

    Time Temperature Precipitation Wind Pressure Humidity
    00:00 -2°C° 0.1 mm 3 mps 635 mmHg 90%
    01:00 -2°C° 0.2 mm 3 mps 635 mmHg 90%
    02:00 -2°C° 0.2 mm 3 mps 635 mmHg 90%
    03:00 -2°C° 0.2 mm 3 mps 635 mmHg 90%
    04:00 -2°C° 0.2 mm 3 mps 635 mmHg 90%
    05:00 -2°C° 0.2 mm 3 mps 635 mmHg 91%
    06:00 -2°C° 0.2 mm 3 mps 634 mmHg 91%
    07:00 -2°C° 0.2 mm 3 mps 634 mmHg 90%
    08:00 -3°C° 0.2 mm 4 mps 635 mmHg 88%
    09:00 -2°C° 0.2 mm 4 mps 635 mmHg 87%
    10:00 -2°C° 0.2 mm 4 mps 634 mmHg 86%
    11:00 -1°C° 0.2 mm 4 mps 634 mmHg 85%
    12:00 -1°C° 0.2 mm 4 mps 633 mmHg 85%
    13:00 -1°C° 0.3 mm 4 mps 633 mmHg 85%
    14:00 -1°C° 0.3 mm 4 mps 633 mmHg 85%
    15:00 -1°C° 0.3 mm 4 mps 632 mmHg 86%
    16:00 -1°C° 0.5 mm 4 mps 632 mmHg 87%
    17:00 -2°C° 0.5 mm 4 mps 632 mmHg 88%
    18:00 -2°C° 0.5 mm 4 mps 633 mmHg 90%
    19:00 -2°C° 0.5 mm 4 mps 633 mmHg 90%
    20:00 -2°C° 0.5 mm 4 mps 633 mmHg 90%
    21:00 -2°C° 0.5 mm 3 mps 633 mmHg 91%
    22:00 -2°C° 0.3 mm 3 mps 633 mmHg 91%
    23:00 -2°C° 0.3 mm 3 mps 632 mmHg 91%
    Show more